Hourly Weather Dziadowek

Today, 6 May, Thursday

Time Temperature Precipitation Wind Pressure Humidity
00:00 +4°C° 0 mm 3 mps 727 mmHg 85%
01:00 +4°C° 0 mm 3 mps 727 mmHg 85%
02:00 +4°C° 0 mm 4 mps 727 mmHg 85%
03:00 +3°C° 0 mm 5 mps 727 mmHg 85%
04:00 +2°C° 0 mm 5 mps 727 mmHg 86%
05:00 +2°C° 0 mm 6 mps 727 mmHg 86%
06:00 +2°C° 0.2 mm 7 mps 727 mmHg 88%
07:00 +2°C° 0.2 mm 7 mps 728 mmHg 89%
08:00 +2°C° 0 mm 7 mps 728 mmHg 91%
09:00 +2°C° 0.2 mm 8 mps 728 mmHg 87%
10:00 +2°C° 0.2 mm 8 mps 729 mmHg 82%
11:00 +4°C° 0.2 mm 8 mps 729 mmHg 78%
12:00 +3°C° 0.2 mm 9 mps 729 mmHg 75%
13:00 +5°C° 0.2 mm 9 mps 730 mmHg 72%
14:00 +6°C° 0.2 mm 9 mps 730 mmHg 69%
15:00 +6°C° 0.3 mm 8 mps 730 mmHg 67%
16:00 +6°C° 0.3 mm 7 mps 730 mmHg 65%
17:00 +8°C° 0.3 mm 6 mps 730 mmHg 64%
18:00 +5°C° 0.1 mm 6 mps 730 mmHg 67%
19:00 +5°C° 0.1 mm 5 mps 731 mmHg 70%
20:00 +4°C° 0.1 mm 4 mps 731 mmHg 72%
21:00 +4°C° 0.1 mm 4 mps 731 mmHg 77%
22:00 +3°C° 0.1 mm 4 mps 731 mmHg 81%
23:00 +3°C° 0.1 mm 4 mps 731 mmHg 85%

Tomorrow, 7 May, Friday

Time Temperature Precipitation Wind Pressure Humidity
00:00 +2°C° 0 mm 3 mps 731 mmHg 88%
01:00 +2°C° 0 mm 3 mps 731 mmHg 91%
02:00 +1°C° 0 mm 3 mps 731 mmHg 94%
03:00 +1°C° 0 mm 3 mps 731 mmHg 94%
04:00 0°C° 0 mm 3 mps 731 mmHg 95%
05:00 0°C° 0 mm 3 mps 731 mmHg 95%
06:00 +3°C° 0 mm 2 mps 731 mmHg 89%
07:00 +4°C° 0 mm 2 mps 731 mmHg 83%
08:00 +6°C° 0 mm 2 mps 731 mmHg 77%
09:00 +6°C° 0 mm 2 mps 731 mmHg 73%
10:00 +7°C° 0 mm 2 mps 731 mmHg 68%
11:00 +8°C° 0 mm 3 mps 731 mmHg 64%
12:00 +8°C° 0.1 mm 3 mps 731 mmHg 65%
13:00 +7°C° 0.1 mm 2 mps 730 mmHg 67%
14:00 +7°C° 0.1 mm 2 mps 730 mmHg 68%
15:00 +7°C° 0.2 mm 2 mps 730 mmHg 72%
16:00 +6°C° 0.2 mm 2 mps 730 mmHg 75%
17:00 +6°C° 0.2 mm 2 mps 730 mmHg 79%
18:00 +5°C° 0.8 mm 2 mps 730 mmHg 83%
19:00 +4°C° 0.8 mm 3 mps 730 mmHg 88%
20:00 +3°C° 0.8 mm 3 mps 731 mmHg 92%
21:00 +3°C° 0.4 mm 4 mps 731 mmHg 93%
22:00 +1°C° 0.4 mm 4 mps 731 mmHg 94%
23:00 +1°C° 0.4 mm 5 mps 732 mmHg 94%

Day after tomorrow, 8 May, Saturday

Time Temperature Precipitation Wind Pressure Humidity
00:00 0°C° 0 mm 5 mps 732 mmHg 94%
01:00 0°C° 0 mm 5 mps 733 mmHg 94%
02:00 -1°C° 0 mm 5 mps 733 mmHg 93%
03:00 -1°C° 0 mm 5 mps 734 mmHg 94%
04:00 -2°C° 0 mm 4 mps 734 mmHg 95%
05:00 -2°C° 0 mm 4 mps 735 mmHg 96%
06:00 -1°C° 0 mm 4 mps 735 mmHg 91%
07:00 0°C° 0 mm 5 mps 736 mmHg 86%
08:00 +2°C° 0 mm 5 mps 736 mmHg 81%
09:00 +3°C° 0.1 mm 5 mps 736 mmHg 79%
10:00 +3°C° 0.1 mm 6 mps 737 mmHg 77%
11:00 +4°C° 0.1 mm 7 mps 737 mmHg 76%
12:00 +5°C° 0.5 mm 7 mps 737 mmHg 76%
13:00 +5°C° 0.5 mm 7 mps 737 mmHg 75%
14:00 +6°C° 0.5 mm 7 mps 737 mmHg 75%
15:00 +6°C° 0.4 mm 7 mps 738 mmHg 75%
16:00 +7°C° 0.4 mm 6 mps 738 mmHg 76%
17:00 +7°C° 0.4 mm 6 mps 738 mmHg 76%
18:00 +5°C° 0.1 mm 5 mps 739 mmHg 81%
19:00 +4°C° 0.1 mm 4 mps 739 mmHg 86%
20:00 +3°C° 0.1 mm 3 mps 740 mmHg 90%
21:00 +2°C° 0 mm 3 mps 740 mmHg 92%
22:00 +1°C° 0 mm 3 mps 740 mmHg 93%
23:00 +2°C° 0 mm 2 mps 741 mmHg 95%

9 May, Sunday

Time Temperature Precipitation Wind Pressure Humidity
00:00 +1°C° 0 mm 2 mps 741 mmHg 95%
01:00 +1°C° 0 mm 2 mps 741 mmHg 94%
02:00 +1°C° 0 mm 2 mps 742 mmHg 94%
03:00 +1°C° 0 mm 2 mps 742 mmHg 93%
04:00 -1°C° 0 mm 3 mps 742 mmHg 93%
05:00 -1°C° 0 mm 3 mps 742 mmHg 92%
06:00 +1°C° 0 mm 3 mps 742 mmHg 88%
07:00 +3°C° 0 mm 4 mps 743 mmHg 83%
08:00 +5°C° 0 mm 4 mps 743 mmHg 78%
09:00 +6°C° 0 mm 4 mps 743 mmHg 71%
10:00 +8°C° 0 mm 5 mps 743 mmHg 63%
11:00 +10°C° 0 mm 5 mps 743 mmHg 56%
12:00 +11°C° 0 mm 6 mps 742 mmHg 55%
13:00 +11°C° 0 mm 6 mps 742 mmHg 54%
14:00 +13°C° 0 mm 6 mps 742 mmHg 53%
15:00 +13°C° 0 mm 6 mps 742 mmHg 57%
16:00 +13°C° 0 mm 6 mps 742 mmHg 61%
17:00 +13°C° 0 mm 5 mps 741 mmHg 64%
18:00 +12°C° 0 mm 5 mps 741 mmHg 68%
19:00 +12°C° 0 mm 5 mps 741 mmHg 71%
20:00 +10°C° 0 mm 5 mps 741 mmHg 75%
21:00 +9°C° 0 mm 5 mps 742 mmHg 76%
22:00 +9°C° 0 mm 5 mps 742 mmHg 77%
23:00 +8°C° 0 mm 5 mps 742 mmHg 77%

10 May, Monday

Time Temperature Precipitation Wind Pressure Humidity
00:00 +8°C° 0 mm 5 mps 742 mmHg 78%
01:00 +7°C° 0 mm 5 mps 742 mmHg 79%
02:00 +7°C° 0 mm 4 mps 742 mmHg 80%
03:00 +6°C° 0 mm 5 mps 742 mmHg 82%
04:00 +6°C° 0 mm 5 mps 742 mmHg 84%
05:00 +6°C° 0 mm 5 mps 742 mmHg 87%
06:00 +7°C° 0 mm 5 mps 742 mmHg 82%
07:00 +9°C° 0 mm 6 mps 743 mmHg 77%
08:00 +11°C° 0 mm 6 mps 743 mmHg 72%
09:00 +12°C° 0 mm 7 mps 743 mmHg 67%
10:00 +15°C° 0 mm 7 mps 743 mmHg 63%
11:00 +17°C° 0 mm 8 mps 743 mmHg 58%
12:00 +17°C° 0 mm 8 mps 742 mmHg 57%
13:00 +18°C° 0 mm 8 mps 742 mmHg 57%
14:00 +20°C° 0 mm 8 mps 742 mmHg 56%
15:00 +20°C° 0 mm 8 mps 742 mmHg 58%
16:00 +18°C° 0 mm 8 mps 742 mmHg 60%
17:00 +18°C° 0 mm 8 mps 741 mmHg 62%
18:00 +17°C° 0 mm 7 mps 742 mmHg 65%
19:00 +16°C° 0 mm 6 mps 742 mmHg 68%
20:00 +14°C° 0 mm 6 mps 742 mmHg 71%
21:00 +14°C° 0 mm 6 mps 742 mmHg 73%
22:00 +13°C° 0 mm 6 mps 742 mmHg 75%
23:00 +11°C° 0 mm 6 mps 742 mmHg 77%

11 May, Tuesday

Time Temperature Precipitation Wind Pressure Humidity
00:00 +11°C° 0 mm 6 mps 742 mmHg 78%
01:00 +10°C° 0 mm 6 mps 742 mmHg 79%
02:00 +10°C° 0 mm 6 mps 742 mmHg 80%
03:00 +9°C° 0 mm 6 mps 742 mmHg 80%
04:00 +9°C° 0 mm 6 mps 742 mmHg 81%
05:00 +8°C° 0 mm 6 mps 741 mmHg 82%
06:00 +9°C° 0 mm 7 mps 742 mmHg 79%
07:00 +10°C° 0 mm 7 mps 742 mmHg 75%
08:00 +12°C° 0 mm 8 mps 742 mmHg 72%
09:00 +13°C° 0 mm 8 mps 742 mmHg 68%
10:00 +16°C° 0 mm 8 mps 742 mmHg 64%
11:00 +17°C° 0 mm 8 mps 742 mmHg 60%
12:00 +18°C° 0 mm 8 mps 742 mmHg 59%
13:00 +20°C° 0 mm 8 mps 741 mmHg 58%
14:00 +20°C° 0 mm 8 mps 741 mmHg 57%
15:00 +20°C° 0 mm 8 mps 741 mmHg 58%
16:00 +18°C° 0 mm 8 mps 741 mmHg 59%
17:00 +18°C° 0 mm 8 mps 741 mmHg 60%
18:00 +17°C° 0 mm 8 mps 741 mmHg 61%
19:00 +15°C° 0 mm 8 mps 741 mmHg 63%
20:00 +14°C° 0 mm 7 mps 741 mmHg 64%
21:00 +12°C° 0 mm 7 mps 741 mmHg 64%
22:00 +12°C° 0 mm 7 mps 741 mmHg 65%
23:00 +11°C° 0 mm 6 mps 741 mmHg 65%
Show more

We Need Your Consent

Meteoprog and our Service Providers may store and access personal data such as cookies, device identifiers or other similar technologies on your device and process such data to personalise content and ads, as well as provide social media features and to analyse the traffic.

  • Store and/or access information on your device

    Cookies, device identifiers or other information can be stored or accessed on your device for the purposes indicated above.

  • Personalised ads and content, ad and content measurement, audience insights, and products development

    Ads and content can be personalised based on a profile. More data can be added to better personalise ads and content. Ad and content performance can be measured. Insights about the audience who saw the ads and content can be derived. Such data can be used to develop or improve user’s experience, systems and software.

By clicking ‘I Agree’ you will allow the use of indicated cookies, device identifiers, web beacons or other similar technologies. Your settings can be changed in the browser on your device.

For certain purposes, legitimate interests may be relied on, rather than consent. You can read more about this in our Privacy and Cookie Policy.